Regional Weather Roundup
Issued by NWS Bismarck, ND

Home | Current Version | Previous Version | Text Only | Print | Product List | Glossary On
Versions: 1 2 3 4 5 6 7 8 9 10 11 12 13 14 15 16 17 18 19 20 21 22 23 24 25 26 27 28 29 30 31 32 33 34 35 36 37 38 39 40 41 42 43 44 45 46 47 48 49 50
000
ASUS43 KBIS 060920
RWRBIS

NWR BROADCAST TEXT
NATIONAL WEATHER SERVICE BISMARCK ND
300 AM CST FRI MAR 06 2015

NOTE: "FAIR" INDICATES FEW OR NO CLOUDS BELOW 12,000 FEET WITH NO
SIGNIFICANT WEATHER AND/OR OBSTRUCTIONS TO VISIBILITY.


CITY           SKY/WX    TMP DP  RH WIND       PRES   REMARKS
WILLISTON      CLEAR     23  16  74 NE5       30.06R WCI  17
MINOT          CLEAR     22  14  71 W16       30.01R WCI   8
MINOT AFB      CLEAR     18  16  91 W14       30.01R WCI   4
BISMARCK       CLEAR     22  14  71 W5        30.05R WCI  16
DICKINSON      CLEAR     21  12  68 W8        30.02R WCI  11
GARRISON         N/A     19  13  77 NW9       30.02R WCI   8
HETTINGER ARPT CLEAR     24  14  65 NW10      30.06R WCI  14
JAMESTOWN      CLEAR     22  11  62 W14       29.97R WCI   9
BEACH          CLOUDY    27  16  63 W6        30.06S WCI  20
CARRINGTON     FAIR      18  14  86 MISG      30.00R
CROSBY         FAIR      18  14  86 W12       30.05S WCI   5
HARVEY         FAIR      18  14  86 W12       30.00R WCI   5
HAZEN          FAIR      25  16  68 NW6       30.06R WCI  18
LINTON         FAIR      16  14  93 W7        30.03R WCI   6
MANDAN         FAIR      27  16  63 NW9       30.04R WCI  17
OAKES            N/A      9   7  92 S8        29.99F WCI  -4
RUGBY          FAIR      10   9  92 CALM      30.00R
TIOGA          FAIR      12  12 100 W6        30.06S WCI   3
WATFORD CITY   FAIR      21  16  79 SW3       30.04R
$$

CITY           SKY/WX    TMP DP  RH WIND       PRES   REMARKS
GRAND FORKS    CLEAR     12   6  77 NW10      29.96R WCI  -1
GRAND FORKS AF CLEAR     21  11  66 NW13      29.95S WCI   8
DEVILS LAKE    CLEAR     16   9  73 W12       29.97S WCI   3
FARGO          CLEAR     13   6  74 S8        29.98S WCI   2
CANDO          FAIR       7   3  85 W9        29.98R WCI  -7
CAVALIER       FAIR      19   9  63 NW10      29.96R WCI   8
GWINNER        SUNNY     18  10  73 SW13      30.00S WCI   4
ROLLA          FAIR      19  10  68 NW17      29.95S WCI   4
WALHALLA         N/A     18   9  68 W9        29.96R WCI   6
$$

CITY           SKY/WX    TMP DP  RH WIND       PRES   REMARKS
ABERDEEN       CLOUDY    14   9  80 S5        30.03F WCI   6
MOBRIDGE       CLEAR     19  12  74 E5        30.02S WCI  12
BUFFALO          N/A     27  14  58 W9        30.00S WCI  18
RAPID CITY     CLOUDY    32  16  51 SW5       30.11S
GLASGOW        CLEAR     28  19  69 SW5       30.06R
SIDNEY         PTCLDY    25  18  74 W9        30.09S WCI  15
WOLF POINT     MOCLDY    26  20  77 CALM      30.08R
GLENDIVE       PTCLDY    27  16  63 NW10      30.07S WCI  17
MILES CITY     CLEAR     27  16  63 NW7       30.09R WCI  19
BAKER          CLEAR     27  14  58 NW3       30.06S
$$

CITY           SKY/WX    TMP DP  RH WIND       PRES   REMARKS
BILLINGS       PTCLDY    36  14  40 SW17      30.16R
GREAT FALLS    PTCLDY    32  16  51 SW10      30.12S
REGINA         PTCLDY    10   9  92 W7        30.01S WCI   0
ESTEVAN        PTCLDY     9   5  85 W7        30.03R WCI  -3
$$



USA.gov is the U.S. government's official web portal to all federal, state and local government web resources and services.